QPF
0.00 0.00 0.00 0.00 0.00 0.00 0.00 0.00 0.00 0.00 0.00 0.00 0.00 0.00 0.00 0.00 0.00 0.00 0.00 0.00 0.00 0.01 0.01 0.02 0.02 0.04 0.05 0.04 0.04 0.09 0.16 0.17 0.15 0.07 0.00 0.00 0.00 0.00 0.00 0.00 0.00 0.00 0.00
0.00 0.00 0.00 0.00 0.00 0.00 0.00 0.00 0.00 0.00 0.00 0.00 0.00 0.00 0.01 0.01 0.01 0.00 0.00 0.00 0.00 0.00 0.00 0.01 0.01 0.03 0.04 0.05 0.05 0.06 0.05 0.08 0.16 0.11 0.04 0.01 0.01 0.01 0.01 0.01 0.00 0.00 0.00
0.00 0.00 0.00 0.00 0.00 0.00 0.00 0.00 0.00 0.00 0.00 0.00 0.01 0.01 0.01 0.01 0.00 0.00 0.00 0.00 0.01 0.01 0.01 0.02 0.01 0.03 0.04 0.05 0.05 0.06 0.06 0.06 0.11 0.10 0.09 0.09 0.04 0.02 0.08 0.09 0.06 0.01 0.00
0.00 0.00 0.00 0.00 0.00 0.00 0.00 0.00 0.00 0.00 0.00 0.00 0.01 0.01 0.00 0.00 0.00 0.00 0.00 0.01 0.01 0.01 0.02 0.04 0.03 0.03 0.04 0.05 0.05 0.05 0.07 0.08 0.08 0.06 0.05 0.06 0.05 0.02 0.05 0.11 0.09 0.05 0.03
0.00 0.00 0.00 0.00 0.00 0.00 0.00 0.00 0.00 0.00 0.00 0.01 0.01 0.00 0.00 0.00 0.00 0.00 0.00 0.00 0.00 0.01 0.01 0.02 0.03 0.02 0.03 0.04 0.06 0.06 0.09 0.08 0.07 0.05 0.03 0.02 0.00 0.00 0.00 0.01 0.03 0.05 0.05
0.00 0.00 0.00 0.00 0.00 0.00 0.00 0.00 0.00 0.01 0.02 0.02 0.01 0.01 0.00 0.00 0.00 0.00 0.00 0.00 0.00 0.00 0.02 0.03 0.05 0.04 0.03 0.03 0.06 0.09 0.12 0.08 0.06 0.04 0.01 0.01 0.00 0.00 0.01 0.02 0.05 0.07 0.06
0.00 0.00 0.00 0.00 0.00 0.00 0.00 0.00 0.01 0.01 0.01 0.02 0.01 0.00 0.00 0.00 0.00 0.00 0.00 0.00 0.00 0.00 0.01 0.04 0.07 0.08 0.07 0.08 0.04 0.02 0.11 0.09 0.06 0.05 0.03 0.01 0.00 0.00 0.01 0.02 0.04 0.07 0.06
0.00 0.00 0.00 0.00 0.00 0.00 0.00 0.01 0.00 0.01 0.01 0.01 0.00 0.00 0.00 0.00 0.00 0.00 0.00 0.00 0.00 0.00 0.00 0.02 0.07 0.11 0.15 0.14 0.12 0.07 0.02 0.02 0.01 0.01 0.00 0.00 0.00 0.02 0.03 0.02 0.05 0.06 0.06
0.00 0.00 0.00 0.00 0.00 0.00 0.00 0.00 0.00 0.01 0.03 0.01 0.00 0.01 0.01 0.00 0.00 0.00 0.00 0.00 0.00 0.01 0.01 0.05 0.10 0.12 0.13 0.26 0.18 0.14 0.07 0.01 0.00 0.00 0.00 0.00 0.00 0.00 0.03 0.08 0.07 0.07 0.07
0.00 0.00 0.00 0.00 0.00 0.00 0.00 0.00 0.02 0.03 0.01 0.00 0.00 0.01 0.02 0.00 0.00 0.00 0.00 0.01 0.04 0.07 0.08 0.06 0.06 0.09 0.16 0.19 0.15 0.15 0.09 0.04 0.05 0.04 0.01 0.00 0.00 0.00 0.00 0.02 0.05 0.10 0.11
0.00 0.00 0.00 0.00 0.00 0.00 0.00 0.01 0.03 0.01 0.00 0.00 0.00 0.01 0.00 0.00 0.00 0.00 0.01 0.03 0.04 0.03 0.03 0.04 0.10 0.14 0.06 0.04 0.07 0.12 0.10 0.09 0.08 0.06 0.07 0.03 0.03 0.02 0.00 0.00 0.00 0.03 0.08
0.00 0.00 0.00 0.00 0.00 0.00 0.00 0.01 0.01 0.01 0.01 0.01 0.00 0.01 0.00 0.00 0.00 0.00 0.00 0.02 0.04 0.04 0.03 0.05 0.10 0.13 0.07 0.08 0.09 0.07 0.03 0.01 0.03 0.13 0.13 0.08 0.06 0.06 0.08 0.08 0.08 0.07 0.04
0.00 0.00 0.00 0.00 0.00 0.00 0.00 0.01 0.01 0.01 0.00 0.00 0.00 0.02 0.00 0.00 0.01 0.00 0.00 0.00 0.01 0.05 0.07 0.06 0.11 0.11 0.12 0.13 0.08 0.06 0.03 0.02 0.03 0.10 0.16 0.13 0.09 0.09 0.10 0.11 0.12 0.13 0.11
0.00 0.00 0.00 0.00 0.00 0.00 0.00 0.00 0.00 0.00 0.00 0.00 0.00 0.00 0.00 0.00 0.00 0.01 0.03 0.01 0.02 0.03 0.03 0.02 0.03 0.05 0.05 0.04 0.04 0.05 0.04 0.04 0.04 0.04 0.04 0.03 0.02 0.01 0.01 0.02 0.05 0.14 0.18
0.00 0.00 0.00 0.00 0.00 0.00 0.00 0.00 0.00 0.00 0.00 0.00 0.00 0.00 0.00 0.00 0.00 0.02 0.07 0.09 0.04 0.05 0.05 0.02 0.00 0.00 0.00 0.00 0.00 0.00 0.01 0.03 0.05 0.06 0.07 0.06 0.05 0.03 0.02 0.01 0.02 0.09 0.14
0.01 0.00 0.00 0.00 0.00 0.00 0.00 0.00 0.00 0.00 0.00 0.00 0.00 0.00 0.00 0.00 0.00 0.00 0.00 0.04 0.10 0.08 0.09 0.08 0.03 0.00 0.00 0.00 0.00 0.00 0.00 0.00 0.00 0.01 0.01 0.01 0.02 0.03 0.04 0.03 0.04 0.04 0.04
0.00 0.00 0.00 0.00 0.00 0.00 0.00 0.00 0.01 0.01 0.00 0.00 0.00 0.00 0.00 0.00 0.00 0.00 0.00 0.00 0.01 0.03 0.04 0.07 0.05 0.04 0.02 0.00 0.00 0.00 0.00 0.00 0.00 0.01 0.01 0.00 0.00 0.00 0.00 0.00 0.00 0.00 0.00
0.01 0.01 0.00 0.00 0.00 0.00 0.00 0.00 0.00 0.04 0.01 0.00 0.00 0.00 0.00 0.00 0.00 0.00 0.00 0.00 0.00 0.00 0.00 0.01 0.04 0.06 0.07 0.05 0.03 0.02 0.01 0.02 0.01 0.01 0.01 0.01 0.01 0.01 0.01 0.01 0.00 0.00 0.00
0.01 0.00 0.00 0.00 0.00 0.00 0.00 0.00 0.00 0.00 0.00 0.00 0.00 0.00 0.00 0.00 0.00 0.00 0.00 0.00 0.00 0.00 0.00 0.00 0.00 0.00 0.01 0.01 0.02 0.02 0.01 0.01 0.01 0.01 0.02 0.02 0.05 0.05 0.03 0.01 0.00 0.00 0.00
0.00 0.00 0.01 0.00 0.00 0.00 0.00 0.00 0.01 0.00 0.00 0.00 0.00 0.00 0.00 0.00 0.00 0.00 0.00 0.00 0.00 0.00 0.00 0.00 0.00 0.00 0.00 0.00 0.00 0.00 0.00 0.00 0.00 0.00 0.00 0.00 0.00 0.02 0.04 0.06 0.06 0.06 0.05
0.00 0.04 0.02 0.00 0.00 0.00 0.00 0.01 0.00 0.00 0.00 0.00 0.00 0.00 0.00 0.00 0.00 0.00 0.00 0.00 0.00 0.00 0.00 0.00 0.00 0.00 0.00 0.00 0.00 0.00 0.00 0.00 0.00 0.00 0.00 0.00 0.00 0.00 0.00 0.00 0.00 0.01 0.03
0.03 0.03 0.02 0.01 0.01 0.01 0.03 0.00 0.00 0.00 0.00 0.00 0.00 0.00 0.00 0.00 0.00 0.00 0.00 0.00 0.00 0.00 0.00 0.00 0.00 0.00 0.00 0.00 0.00 0.00 0.00 0.00 0.00 0.00 0.00 0.00 0.00 0.00 0.00 0.00 0.00 0.00 0.00
0.00 0.00 0.01 0.00 0.00 0.01 0.01 0.00 0.00 0.00 0.00 0.00 0.00 0.00 0.00 0.00 0.00 0.00 0.00 0.00 0.00 0.00 0.00 0.00 0.00 0.00 0.00 0.00 0.00 0.00 0.00 0.00 0.00 0.00 0.00 0.00 0.00 0.00 0.00 0.00 0.00 0.00 0.00
0.00 0.00 0.00 0.00 0.01 0.00 0.00 0.00 0.00 0.00 0.00 0.00 0.00 0.00 0.00 0.00 0.00 0.00 0.00 0.00 0.00 0.00 0.00 0.00 0.00 0.00 0.00 0.00 0.00 0.00 0.00 0.00 0.00 0.00 0.00 0.00 0.00 0.00 0.00 0.00 0.00 0.00 0.00
0.00 0.00 0.00 0.00 0.00 0.00 0.00 0.00 0.00 0.00 0.00 0.00 0.00 0.00 0.00 0.00 0.00 0.00 0.00 0.00 0.00 0.00 0.00 0.00 0.00 0.00 0.00 0.00 0.00 0.00 0.00 0.00 0.00 0.00 0.00 0.00 0.00 0.00 0.00 0.00 0.00 0.00 0.00
0.00 0.00 0.00 0.00 0.00 0.00 0.00 0.00 0.00 0.00 0.00 0.00 0.00 0.00 0.00 0.00 0.00 0.00 0.00 0.00 0.00 0.00 0.00 0.00 0.00 0.00 0.00 0.00 0.00 0.00 0.00 0.00 0.00 0.00 0.00 0.00 0.00 0.00 0.00 0.00 0.00 0.00 0.00
MSLP
1013.37 1013.78 1014.33 1014.65 1014.72 1014.95 1014.96 1014.89 1014.68 1014.45 1014.30 1014.09 1013.87 1013.58 1013.21 1012.84 1012.58 1012.31 1011.91 1011.44 1010.96 1010.40 1009.96 1009.28 1008.65 1008.49 1008.10 1007.53 1007.07 1007.01 1007.18 1008.10 1008.10 1005.25 1007.03 1005.49 1005.74 1006.12 1006.27 1006.48 1007.02 1007.66 1007.91
1013.35 1013.96 1014.32 1014.43 1014.71 1014.80 1014.76 1014.60 1014.44 1014.21 1013.91 1013.53 1013.20 1012.86 1012.65 1012.59 1012.42 1012.10 1011.48 1011.06 1010.54 1009.86 1009.09 1008.50 1007.69 1007.28 1006.79 1006.68 1006.32 1005.98 1005.70 1005.89 1007.38 1007.54 1007.03 1006.94 1006.88 1006.11 1005.71 1006.15 1006.17 1006.40 1006.78
1013.25 1013.64 1013.94 1014.15 1014.51 1014.61 1014.57 1014.41 1014.18 1013.83 1013.41 1013.04 1012.80 1012.57 1012.24 1012.02 1011.84 1011.59 1011.11 1010.62 1010.12 1009.31 1008.41 1007.48 1006.67 1006.28 1005.78 1005.41 1005.35 1005.33 1005.36 1005.29 1005.74 1005.92 1005.80 1006.72 1006.41 1007.07 1005.74 1005.64 1005.90 1005.91 1006.09
1012.85 1013.25 1013.54 1013.86 1014.15 1014.15 1014.08 1013.88 1013.53 1013.16 1012.80 1012.51 1012.22 1012.03 1011.67 1011.42 1011.21 1010.68 1010.10 1009.86 1009.59 1008.95 1008.12 1006.72 1005.68 1005.21 1004.73 1004.49 1004.42 1004.42 1004.73 1004.89 1005.35 1005.75 1005.86 1006.29 1006.23 1005.41 1005.77 1006.16 1005.86 1005.52 1006.29
1012.57 1012.94 1013.15 1013.57 1013.77 1013.79 1013.69 1013.36 1013.00 1012.74 1012.40 1012.11 1011.89 1011.64 1011.27 1011.04 1010.43 1010.20 1009.73 1009.11 1008.73 1007.76 1006.83 1005.61 1004.72 1004.05 1003.68 1003.35 1003.40 1003.30 1003.83 1004.17 1004.51 1004.87 1005.05 1005.02 1004.75 1004.45 1004.48 1004.37 1004.07 1005.36 1006.40
1012.30 1012.61 1012.89 1013.31 1013.42 1013.48 1013.35 1013.04 1012.60 1012.31 1012.12 1011.91 1011.72 1011.44 1010.94 1010.50 1010.39 1009.92 1009.27 1008.31 1007.39 1006.46 1005.32 1004.09 1003.36 1002.72 1002.36 1002.24 1002.34 1002.55 1002.79 1003.24 1003.49 1003.88 1003.97 1003.86 1003.77 1003.57 1003.90 1004.03 1003.85 1004.79 1005.68
1012.12 1012.42 1012.74 1012.95 1013.06 1013.06 1012.95 1012.69 1012.34 1012.21 1011.97 1011.62 1011.36 1010.82 1010.47 1010.28 1009.80 1009.28 1008.27 1007.09 1005.92 1004.85 1003.91 1002.76 1001.75 1001.19 1000.98 1000.84 1001.17 1001.59 1002.11 1002.63 1002.84 1003.15 1003.16 1002.96 1002.77 1003.24 1003.89 1004.00 1004.10 1004.09 1004.27
1011.81 1012.12 1012.39 1012.57 1012.55 1012.52 1012.42 1012.21 1012.10 1012.09 1011.83 1011.43 1011.01 1010.39 1010.04 1009.86 1009.44 1008.39 1007.08 1005.48 1004.22 1003.33 1002.59 1001.30 1000.71 1000.05 999.81 999.72 1000.02 1000.37 1000.77 1001.33 1002.14 1002.60 1002.67 1002.67 1002.89 1003.28 1003.67 1003.67 1003.80 1003.80 1003.73
1011.33 1011.66 1011.94 1012.12 1012.23 1012.21 1012.18 1011.97 1012.01 1012.03 1011.78 1011.25 1010.54 1010.07 1010.07 1009.65 1008.83 1007.63 1006.03 1004.65 1003.09 1002.10 1001.22 1000.05 999.28 998.92 998.97 999.47 999.71 999.91 1000.18 1000.24 1000.80 1001.45 1001.95 1002.22 1002.71 1003.15 1003.50 1003.84 1003.83 1003.93 1003.61
1010.89 1011.21 1011.53 1011.84 1011.96 1011.93 1012.00 1012.01 1012.12 1011.96 1011.01 1010.76 1010.20 1010.15 1010.09 1009.45 1008.21 1006.82 1005.29 1004.15 1002.42 1001.02 999.98 999.07 998.75 998.71 998.84 999.39 999.52 999.79 1000.10 999.83 1000.18 1000.47 1001.41 1001.90 1002.33 1002.64 1002.97 1003.27 1003.34 1003.62 1003.38
1010.57 1010.83 1011.15 1011.53 1011.67 1011.76 1011.76 1011.82 1011.72 1011.49 1011.01 1010.54 1009.84 1009.83 1009.85 1009.48 1008.28 1006.81 1004.82 1003.95 1001.92 1000.58 999.48 998.74 998.30 998.62 999.03 999.37 999.56 999.89 1000.28 1000.01 1000.49 1000.80 1000.97 1001.17 1001.39 1001.59 1001.72 1002.17 1002.62 1002.77 1003.04
1010.18 1010.54 1010.80 1011.11 1011.16 1011.02 1011.28 1011.36 1011.23 1011.00 1010.40 1009.82 1009.47 1009.33 1009.34 1009.44 1008.74 1007.28 1005.82 1004.03 1002.65 1000.79 1000.07 999.72 999.61 999.69 999.96 1000.08 1000.27 1000.69 1000.93 1000.88 1001.02 1001.00 1001.05 1000.97 1000.98 1001.01 1001.10 1001.38 1001.71 1002.41 1002.37
1009.89 1010.28 1010.43 1010.67 1010.72 1010.77 1010.72 1010.56 1010.31 1009.80 1009.77 1009.74 1009.53 1009.72 1009.43 1009.75 1009.16 1008.19 1007.27 1005.70 1004.06 1002.82 1002.23 1001.80 1000.63 1000.47 1000.44 1000.82 1001.08 1001.21 1001.29 1001.36 1001.53 1001.70 1001.30 1001.19 1001.17 1001.21 1001.48 1001.70 1001.87 1001.98 1002.02
1009.61 1009.85 1010.03 1010.24 1010.21 1009.99 1009.77 1009.28 1009.34 1009.45 1009.98 1010.34 1010.16 1010.42 1010.08 1009.99 1009.60 1008.82 1008.34 1006.78 1005.52 1004.30 1003.79 1002.78 1001.82 1001.63 1001.88 1002.03 1002.00 1002.19 1002.37 1002.32 1002.22 1002.22 1002.20 1002.32 1002.15 1002.17 1002.13 1002.06 1001.85 1001.67 1001.58
1009.37 1009.59 1009.45 1009.33 1009.19 1008.90 1008.92 1008.94 1009.42 1010.74 1011.36 1011.38 1011.60 1011.21 1011.11 1010.72 1010.46 1010.04 1009.34 1008.00 1007.05 1005.65 1004.83 1004.07 1003.20 1002.54 1002.81 1003.16 1003.53 1002.99 1003.33 1003.71 1003.04 1003.36 1003.29 1003.42 1003.30 1003.13 1002.91 1002.81 1002.71 1002.51 1002.57
1009.77 1009.04 1008.40 1008.23 1008.12 1007.98 1008.27 1009.97 1010.72 1010.91 1011.58 1012.08 1012.21 1012.00 1011.57 1011.58 1011.10 1009.92 1008.93 1008.33 1007.06 1005.78 1004.95 1004.01 1003.82 1003.06 1003.03 1003.51 1003.88 1004.25 1004.22 1004.51 1004.28 1004.26 1004.41 1004.58 1004.43 1004.41 1004.16 1004.04 1003.60 1003.67 1003.58
1009.81 1008.79 1008.12 1008.24 1008.12 1007.98 1008.02 1009.04 1010.84 1011.96 1012.12 1011.93 1011.91 1011.85 1011.58 1011.52 1010.91 1010.22 1009.52 1008.69 1007.92 1006.85 1006.61 1006.07 1005.21 1004.61 1004.15 1003.64 1003.90 1004.59 1004.75 1004.84 1004.76 1004.76 1004.95 1005.05 1005.07 1005.33 1004.77 1005.32 1004.93 1004.59 1004.83
1008.50 1008.90 1008.22 1007.67 1007.31 1007.62 1007.60 1008.51 1009.10 1010.83 1010.39 1011.16 1011.41 1011.45 1011.28 1011.28 1010.97 1010.56 1009.81 1008.95 1008.53 1008.27 1007.91 1007.45 1006.74 1006.09 1005.54 1005.42 1005.13 1004.92 1004.89 1004.85 1004.79 1005.10 1005.18 1005.14 1005.32 1005.06 1005.26 1005.35 1004.91 1004.83 1005.02
1008.49 1007.87 1007.87 1007.40 1007.20 1007.69 1007.29 1007.83 1008.72 1008.53 1009.39 1010.27 1010.44 1011.14 1010.85 1010.64 1010.57 1010.48 1010.37 1009.91 1009.56 1009.18 1008.67 1008.34 1008.10 1007.78 1007.28 1006.83 1006.32 1005.88 1005.84 1005.72 1005.83 1005.79 1005.80 1005.68 1005.57 1005.43 1005.30 1005.16 1005.03 1004.77 1004.94
1007.46 1007.16 1007.38 1007.06 1007.88 1007.32 1007.77 1007.57 1008.52 1008.54 1009.19 1009.61 1010.17 1010.55 1010.20 1009.74 1010.01 1010.11 1010.21 1010.19 1009.98 1009.85 1009.53 1008.95 1008.83 1008.47 1008.21 1008.19 1007.82 1007.51 1007.24 1007.24 1006.92 1006.81 1006.76 1006.65 1006.54 1006.32 1005.95 1005.38 1005.24 1005.21 1005.03
1006.19 1007.30 1006.98 1007.20 1007.95 1007.50 1007.59 1007.92 1007.66 1008.70 1009.24 1010.07 1010.66 1011.05 1011.12 1010.80 1010.21 1010.25 1010.28 1010.25 1010.24 1010.16 1010.08 1009.83 1009.45 1009.31 1009.21 1009.16 1008.87 1008.15 1008.04 1007.92 1007.68 1007.50 1007.40 1007.24 1006.79 1006.67 1006.68 1006.60 1006.18 1005.80 1005.24
1008.60 1009.10 1008.75 1009.59 1009.20 1009.38 1008.40 1007.98 1008.61 1008.85 1009.17 1009.76 1009.94 1010.60 1010.66 1010.20 1010.44 1010.57 1010.65 1010.78 1010.84 1010.76 1010.59 1010.36 1010.12 1010.09 1009.78 1009.62 1009.83 1009.98 1010.12 1009.84 1009.46 1009.16 1008.66 1007.79 1007.23 1006.98 1006.97 1006.47 1006.28 1006.17 1006.04
1009.10 1009.57 1010.05 1010.12 1009.86 1009.35 1009.24 1008.44 1008.79 1009.26 1009.60 1009.45 1009.85 1010.25 1010.34 1010.51 1010.59 1010.98 1010.92 1011.12 1011.21 1011.10 1010.99 1010.74 1010.64 1010.62 1010.66 1010.18 1010.65 1011.56 1011.84 1011.82 1011.18 1010.79 1010.36 1009.20 1008.51 1008.07 1007.72 1007.27 1006.96 1006.64 1006.43
1009.73 1009.67 1010.01 1010.27 1010.44 1010.49 1009.74 1008.86 1009.38 1009.81 1009.81 1009.98 1010.09 1010.40 1010.65 1010.91 1011.00 1011.42 1011.60 1011.64 1011.54 1011.30 1011.28 1011.08 1011.24 1011.37 1011.47 1011.45 1012.16 1012.91 1013.89 1013.89 1012.70 1012.28 1011.54 1010.48 1009.53 1008.80 1008.45 1007.90 1007.49 1007.42 1007.25
1009.93 1009.98 1010.24 1010.86 1010.72 1009.58 1009.22 1009.32 1009.62 1009.82 1010.15 1010.48 1010.58 1010.97 1011.12 1011.34 1011.53 1011.70 1012.00 1012.17 1012.00 1011.79 1011.75 1011.68 1012.01 1012.02 1012.67 1013.40 1014.01 1014.42 1014.98 1014.57 1013.98 1013.84 1012.29 1011.21 1010.13 1009.40 1008.86 1008.53 1008.33 1008.19 1007.82
1009.73 1010.00 1010.02 1009.94 1009.92 1010.00 1009.99 1010.09 1010.47 1010.83 1011.00 1011.17 1011.42 1011.63 1011.71 1011.92 1012.19 1012.47 1012.84 1013.04 1012.78 1012.54 1012.53 1012.41 1012.61 1012.70 1012.44 1013.73 1014.63 1015.14 1015.02 1014.70 1014.23 1013.68 1013.05 1011.07 1010.27 1009.65 1009.38 1009.27 1008.93 1008.53 1007.98
Thickness
5773 5768 5761 5755 5752 5746 5742 5738 5736 5734 5730 5728 5725 5722 5721 5720 5718 5716 5715 5717 5717 5721 5724 5728 5734 5737 5738 5746 5753 5752 5751 5740 5734 5742 5759 5784 5780 5782 5784 5787 5786 5782 5783
5766 5758 5752 5748 5742 5737 5734 5731 5728 5725 5724 5722 5720 5717 5713 5709 5705 5703 5704 5704 5704 5708 5714 5717 5724 5730 5735 5738 5743 5746 5753 5757 5733 5735 5738 5754 5754 5778 5781 5777 5784 5784 5784
5759 5752 5746 5742 5734 5729 5725 5722 5719 5717 5715 5713 5709 5705 5703 5700 5696 5692 5690 5690 5690 5694 5701 5707 5713 5717 5723 5731 5735 5737 5740 5747 5743 5746 5752 5746 5739 5751 5767 5773 5780 5780 5781
5754 5746 5739 5733 5727 5723 5719 5716 5714 5711 5708 5705 5701 5698 5696 5692 5687 5685 5683 5679 5676 5677 5681 5691 5698 5704 5711 5718 5723 5729 5731 5734 5733 5733 5740 5738 5742 5759 5755 5738 5757 5771 5764
5746 5739 5734 5726 5720 5716 5712 5709 5706 5702 5699 5695 5690 5688 5683 5678 5677 5672 5669 5666 5662 5666 5670 5679 5686 5695 5702 5711 5714 5722 5722 5724 5727 5729 5733 5739 5743 5751 5751 5761 5767 5757 5747
5738 5732 5727 5717 5713 5707 5703 5700 5698 5695 5690 5685 5678 5674 5670 5665 5658 5655 5652 5652 5658 5659 5664 5672 5679 5688 5695 5703 5708 5713 5718 5718 5720 5723 5730 5735 5741 5750 5751 5753 5757 5746 5737
5729 5723 5716 5711 5705 5700 5696 5691 5688 5683 5680 5675 5670 5665 5658 5652 5646 5643 5645 5647 5653 5658 5662 5668 5675 5684 5692 5700 5705 5707 5708 5711 5717 5722 5725 5734 5741 5743 5738 5738 5744 5747 5748
5719 5713 5709 5704 5699 5695 5689 5684 5679 5675 5670 5666 5661 5656 5649 5642 5634 5637 5640 5647 5656 5657 5662 5671 5674 5680 5688 5696 5701 5705 5708 5713 5715 5718 5724 5729 5733 5733 5732 5736 5739 5743 5747
5711 5706 5703 5697 5691 5686 5680 5675 5671 5665 5660 5657 5653 5647 5638 5633 5629 5630 5637 5645 5652 5657 5664 5674 5680 5683 5687 5690 5695 5698 5703 5711 5717 5719 5722 5724 5724 5725 5726 5726 5727 5725 5731
5704 5699 5695 5689 5684 5678 5672 5666 5662 5657 5657 5652 5647 5638 5630 5626 5626 5628 5637 5642 5653 5660 5667 5674 5680 5683 5685 5686 5692 5694 5696 5706 5711 5716 5715 5716 5717 5720 5720 5724 5722 5716 5723
5697 5692 5687 5682 5676 5671 5666 5661 5656 5652 5647 5643 5642 5633 5626 5619 5623 5624 5636 5640 5655 5662 5669 5675 5680 5681 5682 5682 5685 5692 5694 5700 5703 5706 5711 5714 5716 5719 5721 5721 5720 5719 5715
5690 5683 5680 5676 5671 5668 5660 5655 5652 5648 5645 5641 5637 5631 5626 5617 5615 5619 5624 5637 5646 5658 5665 5667 5669 5671 5671 5674 5677 5677 5681 5687 5691 5696 5700 5705 5707 5710 5714 5715 5716 5713 5718
5680 5673 5672 5668 5665 5661 5656 5654 5651 5649 5644 5637 5630 5621 5621 5611 5610 5608 5611 5622 5633 5639 5645 5650 5661 5662 5663 5665 5666 5669 5673 5677 5680 5681 5689 5693 5698 5700 5702 5703 5704 5706 5709
5667 5664 5664 5659 5657 5658 5656 5659 5653 5648 5637 5628 5621 5612 5612 5607 5604 5604 5599 5611 5620 5628 5633 5640 5648 5651 5651 5653 5657 5659 5661 5664 5668 5672 5675 5677 5683 5684 5686 5690 5694 5698 5700
5656 5654 5656 5656 5656 5657 5655 5653 5647 5631 5620 5617 5606 5606 5602 5600 5597 5591 5587 5599 5604 5615 5621 5626 5636 5641 5641 5640 5641 5647 5647 5647 5655 5656 5659 5660 5664 5668 5672 5675 5678 5682 5682
5634 5643 5655 5657 5656 5656 5652 5635 5625 5621 5609 5599 5593 5595 5598 5593 5587 5591 5595 5591 5601 5609 5616 5623 5629 5637 5639 5636 5635 5634 5635 5634 5641 5643 5644 5644 5648 5649 5653 5657 5664 5664 5666
5632 5643 5651 5649 5648 5646 5646 5637 5619 5607 5601 5597 5597 5594 5593 5590 5590 5590 5592 5593 5596 5603 5602 5604 5618 5624 5630 5637 5637 5630 5629 5630 5634 5635 5634 5634 5635 5633 5638 5638 5643 5647 5646
5638 5633 5643 5647 5651 5642 5643 5637 5630 5611 5618 5607 5600 5597 5596 5593 5593 5592 5593 5598 5597 5597 5601 5603 5611 5618 5623 5623 5626 5629 5631 5631 5632 5631 5630 5630 5627 5630 5628 5625 5632 5634 5635
5626 5632 5634 5639 5641 5634 5642 5638 5626 5629 5621 5611 5607 5598 5598 5598 5595 5594 5593 5595 5594 5594 5597 5600 5603 5606 5611 5614 5619 5624 5624 5625 5623 5623 5624 5624 5624 5623 5620 5623 5626 5627 5626
5628 5632 5629 5633 5624 5635 5629 5631 5621 5622 5615 5611 5606 5601 5602 5605 5599 5597 5595 5593 5593 5592 5594 5599 5599 5602 5603 5603 5606 5608 5610 5609 5612 5612 5612 5613 5612 5612 5614 5620 5620 5620 5620
5640 5616 5613 5630 5619 5627 5627 5624 5625 5612 5608 5601 5596 5592 5587 5594 5596 5594 5592 5591 5590 5589 5589 5590 5593 5594 5594 5594 5596 5602 5602 5602 5602 5603 5602 5602 5607 5607 5605 5604 5608 5611 5615
5605 5602 5603 5596 5605 5596 5612 5615 5608 5608 5605 5599 5599 5593 5590 5594 5591 5588 5585 5583 5582 5582 5583 5584 5585 5584 5586 5587 5584 5582 5580 5582 5585 5586 5588 5594 5598 5598 5597 5601 5601 5600 5599
5599 5594 5589 5585 5596 5600 5604 5610 5603 5599 5596 5598 5595 5592 5589 5586 5585 5581 5581 5579 5577 5577 5577 5578 5577 5576 5574 5576 5571 5563 5561 5560 5563 5565 5567 5575 5579 5580 5582 5585 5586 5587 5588
5589 5587 5586 5584 5583 5585 5592 5600 5594 5588 5590 5589 5588 5585 5582 5579 5577 5572 5571 5571 5571 5572 5570 5570 5567 5564 5562 5560 5552 5545 5536 5536 5543 5545 5549 5556 5562 5567 5567 5570 5572 5570 5569
5581 5578 5580 5576 5578 5590 5593 5591 5588 5585 5581 5578 5577 5574 5572 5570 5568 5567 5563 5561 5561 5561 5559 5557 5553 5551 5543 5537 5531 5526 5524 5527 5528 5529 5536 5542 5549 5553 5555 5555 5554 5552 5553
5585 5582 5583 5585 5584 5582 5581 5578 5574 5569 5566 5566 5564 5562 5562 5560 5557 5554 5550 5546 5547 5546 5544 5542 5539 5538 5539 5528 5521 5519 5519 5520 5520 5523 5524 5534 5539 5542 5541 5537 5536 5536 5538